GFSSW_700_rhum_000.txt.gz
RH
16 15 14 11 11 13 14 17 19 20 25 28 30 32 31 30 28 26 22 18 14 11 9 11 10 10 14 13 12 12 13 14 17 15 17 14 18 12 12 12 12 12 14 17 20
14 12 12 13 14 14 15 17 17 21 24 28 28 30 29 29 27 23 22 20 18 15 11 16 14 14 16 14 13 16 15 20 16 15 19 17 19 16 15 12 11 12 14 16 21
13 14 15 14 14 15 16 15 19 23 26 26 30 27 27 28 27 23 20 19 18 16 14 15 17 20 20 20 16 22 22 15 20 15 16 21 23 24 28 30 21 13 11 12 14
16 17 16 16 15 16 15 15 17 20 20 20 19 25 30 30 30 29 28 23 18 17 14 15 20 24 28 27 16 30 22 23 22 22 24 27 26 29 29 30 32 28 31 31 28
18 17 16 14 13 13 13 15 15 15 13 16 20 23 25 28 29 29 27 26 20 17 16 15 16 18 27 27 34 36 26 26 28 34 36 37 36 35 35 36 35 34 35 35 35
18 17 15 13 13 13 12 11 12 14 13 18 22 26 28 19 33 33 33 32 30 27 26 24 21 19 23 21 30 22 29 41 40 39 36 34 36 31 33 32 31 33 39 41 40
20 18 14 14 13 12 11 13 13 13 16 20 19 19 23 22 32 33 34 35 34 33 32 29 30 34 32 32 35 35 45 39 43 37 39 20 36 27 12 12 19 32 41 44 44
20 20 18 16 14 12 10 12 12 15 16 18 19 24 20 31 33 36 35 30 29 28 27 23 20 21 22 24 29 34 38 26 35 18 19 13 18 28 18 15 16 17 17 18 28
20 19 18 16 14 10 9 10 12 14 13 16 19 22 20 24 28 28 23 21 21 19 17 14 15 10 14 34 31 28 22 26 26 13 12 17 14 22 16 10 8 12 14 13 15
19 18 19 19 14 11 10 11 12 12 13 15 16 22 18 20 20 21 19 19 21 17 19 14 10 31 27 23 22 30 28 31 33 27 21 27 16 18 22 16 7 7 9 12 14
21 19 19 19 19 15 13 14 14 13 11 12 13 14 16 20 20 18 17 16 15 18 24 14 32 32 24 15 16 24 38 29 27 27 24 30 18 18 19 12 10 7 9 12 14
20 20 20 17 16 17 17 14 9 9 11 11 11 12 13 14 16 14 14 18 17 21 15 30 32 17 21 23 23 32 36 31 32 39 41 29 15 16 17 16 14 13 13 17 19
20 20 22 21 20 19 18 15 16 14 15 16 15 14 14 14 12 11 12 12 14 13 15 21 22 20 25 31 28 37 35 35 40 33 34 24 20 24 22 24 20 24 26 24 23
25 18 19 22 24 21 18 18 20 21 25 21 20 24 18 15 15 14 13 12 13 13 12 20 19 22 24 29 30 38 32 39 45 39 27 28 22 24 22 28 24 30 33 33 30
36 31 20 19 19 21 22 25 22 22 49 30 26 24 21 20 18 18 13 13 17 15 17 35 20 21 26 29 34 41 42 41 41 47 44 39 36 26 26 29 32 31 35 36 38
37 41 35 31 23 19 20 23 25 40 47 38 35 34 27 26 22 19 15 14 15 18 20 16 16 23 27 38 43 44 41 44 38 48 44 40 37 26 28 33 37 39 40 43 44
36 34 39 38 33 27 22 26 34 52 35 42 43 30 26 30 28 24 24 19 24 31 28 23 21 25 34 48 52 56 49 47 44 42 36 44 43 31 34 33 34 40 45 48 48
44 42 38 38 34 31 28 31 45 39 39 37 36 30 36 32 30 29 31 39 32 36 45 47 37 35 48 48 59 55 53 53 78 46 40 41 42 27 26 30 35 39 44 48 54
44 45 45 42 34 31 32 30 38 36 36 41 32 47 44 35 32 34 37 38 44 44 57 61 50 47 48 58 57 64 60 61 59 60 61 42 40 35 32 30 33 41 45 57 54
44 44 45 43 38 34 33 34 36 37 36 36 41 36 54 39 40 40 46 49 53 51 52 74 72 55 54 56 65 65 66 66 65 84 71 36 37 35 39 42 44 46 58 58 65
44 47 47 46 42 40 38 37 38 38 38 37 38 39 39 40 43 49 51 55 59 58 58 72 82 69 54 64 72 73 73 64 63 65 67 66 45 41 39 42 39 46 52 62 80
47 45 44 46 49 45 41 40 42 44 45 46 46 46 48 51 53 53 54 58 64 72 78 76 78 88 71 67 53 53 73 69 68 64 73 85 72 50 37 36 38 53 68 75 79
47 46 47 46 47 47 48 47 48 52 55 57 58 58 60 65 65 65 71 75 78 84 93 90 99 87 60 57 54 59 68 77 82 88 90 93 65 41 47 52 56 64 71 80 76
51 48 46 48 49 51 52 55 59 62 65 67 69 70 73 75 73 71 71 74 74 70 70 74 87 97 73 62 71 80 81 83 90 97 90 84 61 35 33 45 62 69 77 78 82
65 55 49 48 46 46 46 52 60 64 69 74 77 80 79 78 72 67 68 65 57 58 62 78 79 91 89 92 94 96 91 69 94 84 98 41 70 47 42 61 73 79 70 79 76
67 70 64 60 60 58 54 52 54 57 59 62 69 73 74 75 84 95 80 71 59 60 66 96 93 95 88 87 100 99 68 52 90 88 86 82 70 43 69 75 79 85 86 92 92
65 69 75 76 72 72 68 66 64 64 69 72 75 76 76 76 75 72 70 68 68 66 68 94 95 100 97 98 96 96 46 49 50 70 66 78 58 74 72 80 84 81 98 89 86

GFSSW_700_rhum_003.txt.gz
RH
10 12 14 13 11 10 12 16 17 19 25 31 33 29 28 25 23 20 17 14 12 10 8 11 11 16 16 13 12 13 10 11 11 12 13 14 14 24 14 25 15 10 21 46 12
15 14 11 10 12 13 16 17 18 24 27 30 30 27 27 26 37 21 19 18 16 12 20 23 21 18 16 14 15 14 12 15 16 14 14 13 14 20 21 26 32 20 9 11 12
13 11 12 13 14 14 13 14 19 21 22 24 27 27 27 29 36 23 19 17 15 14 13 22 26 18 19 20 20 20 16 16 20 21 20 18 17 23 21 21 24 35 43 8 9
14 15 13 14 15 13 10 13 17 17 17 17 20 26 28 35 36 27 24 18 16 15 21 29 26 24 23 23 24 23 24 25 29 28 26 25 28 26 26 25 31 38 48 23 28
16 14 14 15 14 13 13 13 15 14 16 16 18 23 31 41 29 26 24 22 19 19 26 28 26 27 24 26 29 29 32 35 36 36 36 35 33 34 31 34 29 33 30 31 34
16 14 16 18 16 15 13 14 13 13 15 18 18 23 44 24 25 24 25 28 31 41 36 32 35 31 34 33 32 35 37 39 38 36 35 28 26 29 29 24 18 27 30 34 36
16 15 18 18 14 12 12 12 13 14 16 18 17 20 21 15 15 27 24 24 23 29 36 25 25 42 39 44 24 36 35 34 34 29 29 12 21 31 25 20 12 8 11 20 36
17 18 19 17 14 13 12 13 14 13 14 16 17 23 16 14 23 17 35 24 15 15 14 11 9 12 39 16 35 31 31 16 20 27 25 24 15 17 23 29 32 33 37 26 14
18 17 19 15 12 11 10 11 12 12 12 12 14 41 21 12 18 13 11 12 12 12 7 5 9 24 29 30 26 19 17 20 21 22 24 21 19 17 19 23 28 27 25 31 40
19 17 15 17 13 12 11 12 11 11 11 10 12 30 14 12 10 10 10 10 11 23 42 34 32 25 22 21 19 21 24 24 23 21 25 26 25 23 22 21 21 21 26 27 28
20 19 17 15 17 14 12 13 13 15 8 12 12 14 10 12 12 11 9 9 26 40 31 26 27 27 30 33 33 32 30 28 25 28 32 30 28 23 20 21 21 24 29 30 30
23 21 19 16 14 15 12 40 25 8 11 7 7 7 8 10 24 9 8 33 34 29 27 35 33 25 17 32 32 28 28 27 28 30 34 30 25 22 23 25 25 24 32 27 21
22 22 20 19 17 16 15 11 9 10 40 10 9 11 10 9 11 10 9 8 21 29 26 27 39 14 29 31 31 28 33 33 35 36 30 29 20 20 24 27 24 28 29 34 31
19 21 22 22 20 18 16 16 17 18 42 36 27 24 16 13 21 11 10 10 31 29 24 33 22 19 34 31 36 30 34 41 40 37 28 30 18 20 23 24 29 34 38 41 36
28 17 20 24 22 22 19 21 22 20 58 26 35 19 18 20 17 25 10 10 27 28 21 39 28 28 32 36 31 38 33 45 44 42 36 29 26 18 25 24 26 31 38 42 30
41 33 25 21 19 21 22 24 22 60 48 42 28 39 44 24 20 20 18 14 14 16 20 26 14 24 28 26 36 34 44 38 42 41 38 33 30 20 22 26 29 33 38 40 40
35 37 39 32 28 22 22 26 68 58 33 45 47 37 39 44 43 24 32 29 36 37 35 33 38 37 26 44 49 48 43 41 40 36 34 33 36 25 25 30 31 36 42 49 56
40 37 36 38 34 30 25 38 66 52 50 38 33 29 46 32 45 40 43 42 47 49 42 39 38 40 44 50 57 54 50 52 66 42 37 34 30 26 28 31 36 44 51 56 59
44 44 41 39 34 31 32 73 63 51 50 50 46 46 49 50 36 42 50 50 54 55 56 53 42 53 52 45 51 55 57 58 57 56 60 43 31 31 31 33 38 47 48 54 64
41 42 44 41 35 32 41 57 52 34 35 35 47 44 45 49 46 48 53 54 61 51 51 72 62 59 63 59 58 64 62 62 65 85 63 38 37 33 33 34 38 44 53 61 70
44 56 46 42 39 41 71 50 37 36 35 48 56 54 54 54 57 54 59 65 66 70 69 78 82 67 66 59 57 61 61 63 55 56 66 61 43 39 42 49 48 51 59 68 69
48 83 45 46 64 45 58 50 38 41 44 46 51 64 66 66 70 64 64 72 56 60 77 86 82 85 70 62 49 58 61 62 62 61 63 68 68 52 52 52 55 62 61 65 75
48 51 50 46 68 48 47 46 46 52 51 62 64 56 56 78 78 77 81 71 67 71 85 86 89 79 50 58 61 61 56 59 66 72 81 90 70 45 47 55 56 57 62 70 77
54 49 47 48 49 74 63 55 50 52 53 55 58 59 83 86 86 82 83 89 67 64 68 72 89 87 75 65 68 69 66 53 67 75 78 76 66 61 59 57 61 64 71 75 81
56 56 47 50 52 57 50 56 78 68 54 54 71 66 82 80 69 80 85 85 91 87 69 88 98 87 82 76 74 71 70 62 65 67 70 61 64 60 61 61 66 75 79 84 90
56 56 54 53 50 53 52 66 77 67 57 86 73 88 85 89 88 89 90 91 90 92 100 99 98 99 96 93 86 80 74 69 69 66 64 64 63 62 64 73 74 90 88 97 96
57 62 61 63 64 61 61 77 80 61 69 70 88 96 98 88 90 83 78 77 72 85 91 100 100 100 96 92 92 87 60 63 68 62 58 60 62 64 67 80 94 95 99 97 92

GFSSW_700_rhum_006.txt.gz
RH
13 13 12 13 13 11 12 13 15 15 23 28 29 27 24 22 20 18 15 14 11 14 22 21 17 17 15 12 12 13 11 10 10 12 12 13 13 20 18 21 24 20 29 64 70
16 15 14 11 10 11 13 14 14 21 28 28 27 25 27 30 30 19 18 16 13 14 21 24 19 16 15 14 15 16 13 14 14 13 15 13 13 17 17 19 23 29 21 12 11
14 11 11 13 12 12 12 12 18 24 27 25 25 30 33 37 39 19 17 16 14 16 24 27 23 19 19 19 20 19 16 16 19 21 18 18 17 20 20 19 26 27 39 37 12
13 15 14 12 12 11 12 17 23 23 19 23 26 26 35 40 39 21 17 16 16 24 29 27 24 23 22 22 24 23 23 24 27 26 26 28 28 26 24 24 25 28 37 46 37
18 15 13 13 13 12 14 16 18 15 17 17 22 30 37 40 28 22 19 27 34 38 33 29 27 28 23 24 27 25 28 30 32 33 29 12 28 28 27 26 17 15 20 31 39
15 13 15 15 16 15 15 16 17 17 14 16 21 33 40 26 31 20 21 46 43 38 34 31 33 30 32 32 32 29 31 29 30 28 26 24 24 24 22 26 17 14 6 13 23
15 17 18 18 19 18 19 16 15 16 16 15 17 26 32 18 26 46 24 18 22 16 12 10 12 37 34 40 6 30 31 31 32 25 21 22 17 20 26 25 19 25 12 14 35
20 22 22 20 19 17 15 13 13 16 16 16 23 30 20 13 26 26 43 25 7 6 3 4 12 20 24 24 28 26 24 16 17 19 22 21 18 17 18 21 25 28 32 32 26
20 20 21 20 15 13 12 12 14 15 16 16 27 48 33 10 18 15 12 8 7 8 9 21 26 26 28 28 25 21 19 20 23 20 21 22 21 20 21 19 20 23 26 26 27
17 18 16 16 15 13 14 14 13 14 15 14 14 40 17 20 7 7 6 5 7 24 38 25 32 30 24 26 25 26 26 26 25 24 24 29 29 26 24 22 20 20 21 22 26
18 15 15 16 17 18 14 24 37 22 32 49 36 43 13 9 10 14 6 8 30 37 30 23 33 28 29 30 28 25 26 25 26 26 28 29 29 26 21 20 20 21 23 25 29
21 20 18 16 17 18 30 65 55 28 20 12 8 7 6 7 29 17 5 23 19 28 25 25 33 31 16 28 28 22 24 29 30 31 32 30 28 25 22 22 21 27 32 32 28
23 20 17 15 15 13 12 23 22 16 44 9 8 8 8 8 10 8 7 7 25 26 25 23 38 20 22 28 30 25 35 36 37 37 27 28 20 22 22 26 24 29 30 36 32
24 23 21 21 18 18 13 12 14 17 54 40 36 28 16 11 35 11 9 8 37 27 12 30 30 14 30 29 31 30 34 29 43 41 35 32 24 19 22 24 29 34 38 39 43
18 21 24 21 22 17 15 18 20 20 67 39 38 15 16 19 23 39 11 10 29 32 22 40 35 18 29 34 28 37 34 42 40 38 38 30 25 20 22 22 25 30 33 37 34
31 23 19 21 22 23 21 24 21 69 58 44 39 38 41 36 29 35 35 26 16 20 26 26 23 15 21 16 40 41 44 36 35 38 44 32 31 26 22 24 25 29 34 38 35
35 38 31 28 21 20 22 24 74 63 38 41 44 42 40 42 41 38 40 42 45 44 37 33 33 37 34 36 40 46 47 47 52 52 51 32 34 30 27 26 29 30 32 34 46
36 33 34 37 32 28 23 35 72 55 44 48 42 39 41 38 46 40 41 40 50 40 43 42 37 39 46 44 48 52 52 53 68 54 51 43 34 26 26 27 29 32 35 46 56
40 40 36 36 35 31 28 76 64 49 50 47 44 40 44 46 31 42 47 48 57 45 55 58 44 48 49 48 45 51 52 58 57 56 63 53 39 34 30 30 34 45 49 50 52
42 44 44 40 34 32 52 68 55 40 44 42 44 41 42 46 44 45 49 57 58 59 48 66 67 57 57 60 56 57 61 60 64 89 64 41 45 41 36 38 40 48 51 54 62
45 76 48 42 38 45 82 66 50 34 34 54 53 49 51 53 56 51 53 64 66 67 66 71 79 66 66 56 57 54 55 58 59 59 70 76 52 46 46 47 54 56 64 64 73
52 88 46 47 72 62 70 62 44 45 42 47 63 66 67 67 68 62 61 70 60 57 75 84 79 88 69 59 58 55 59 59 60 74 67 73 71 55 53 51 55 56 59 64 68
76 57 48 46 93 48 49 47 56 66 50 70 74 51 51 74 71 76 77 78 64 68 74 67 80 78 56 56 63 64 61 60 61 62 73 94 74 62 60 60 58 60 66 72 76
55 62 46 47 68 79 76 76 58 50 48 49 54 54 78 78 78 78 76 81 74 73 80 67 76 83 80 75 74 74 70 64 63 67 68 68 66 62 58 58 62 68 81 77 81
52 60 49 64 55 80 76 76 79 79 56 49 80 78 80 79 68 75 77 78 81 83 83 77 84 88 86 84 87 88 82 68 66 64 64 64 62 57 55 56 63 67 74 91 90
63 53 55 54 48 80 60 73 73 80 63 76 71 79 86 85 84 86 87 92 93 87 86 91 95 93 88 88 93 84 74 59 64 67 66 64 61 54 57 61 68 90 94 87 76
49 53 49 57 58 61 73 73 74 77 84 68 79 91 87 92 89 82 71 67 62 72 71 97 98 97 94 87 90 87 58 63 70 62 61 60 57 60 62 76 90 80 81 70 88

GFSSW_700_rhum_012.txt.gz
RH
13 10 8 8 10 12 15 14 20 21 24 23 22 20 18 15 14 12 13 12 15 16 16 16 16 15 18 20 16 16 14 14 15 13 13 13 15 17 15 15 19 20 24 28 29
17 15 13 11 14 13 13 18 21 24 23 22 20 20 16 15 14 13 14 18 16 17 18 19 20 19 18 20 18 14 13 14 15 15 16 14 14 17 19 17 22 24 29 33 32
15 13 14 14 12 13 16 19 23 22 23 24 24 19 16 15 15 17 23 21 19 21 22 23 22 20 20 20 20 16 16 17 15 12 12 14 17 21 18 23 25 27 27 27 27
16 14 12 12 14 15 19 23 22 23 22 26 25 27 20 14 12 15 22 22 22 20 17 20 19 18 18 23 16 12 10 3 4 6 4 6 5 13 23 20 22 20 20 18 10
14 15 15 16 17 21 23 22 20 20 27 29 20 16 14 12 12 15 16 15 15 14 16 20 23 20 16 26 23 12 20 22 25 19 20 11 12 18 18 21 20 13 17 10 4
18 18 18 19 22 22 19 17 18 18 21 22 15 10 11 11 12 13 10 8 10 14 16 18 18 16 16 21 23 14 23 29 28 26 20 21 16 19 21 22 21 20 19 20 20
20 19 19 20 18 16 14 14 15 17 21 22 19 14 14 8 6 6 5 4 5 5 16 15 18 24 26 28 28 29 28 29 25 31 24 22 19 19 20 23 25 22 20 20 21
20 19 20 20 18 15 14 14 16 21 23 25 17 12 13 9 7 4 3 3 6 14 21 24 26 26 22 23 29 28 26 26 27 27 26 23 24 25 26 21 20 24 25 23 22
24 24 22 19 16 15 15 16 16 21 31 27 24 20 10 8 5 4 4 5 19 24 27 29 27 26 26 19 25 19 26 25 26 27 28 28 27 24 22 27 27 27 26 24 23
25 24 21 18 17 16 15 15 17 19 24 21 22 23 15 6 5 5 4 6 12 20 26 29 32 33 33 18 19 22 23 23 27 28 23 20 22 21 24 26 23 22 21 23 24
19 18 18 18 18 16 17 17 17 18 26 32 20 27 9 7 7 5 5 12 18 19 21 24 31 31 18 23 27 24 22 27 29 28 21 24 25 23 24 26 25 22 18 22 22
15 16 16 16 14 14 15 22 26 14 18 22 11 10 7 7 11 9 6 7 20 25 23 24 26 32 24 30 30 28 18 30 19 22 31 29 20 20 20 25 24 22 15 20 23
13 13 14 15 16 17 25 35 21 14 16 18 10 9 10 9 12 11 8 8 18 22 26 24 32 32 15 20 26 29 21 22 30 31 35 36 24 24 25 26 25 23 20 20 20
18 15 13 14 12 13 17 29 16 36 40 37 32 25 16 18 22 18 12 17 18 20 14 21 29 26 15 27 28 21 30 29 30 37 40 41 42 26 24 24 25 26 25 28 32
18 15 12 12 13 10 14 10 16 25 57 37 28 24 34 35 21 28 24 25 12 13 18 32 26 32 31 31 41 34 30 28 29 39 42 36 38 31 29 29 27 28 30 34 38
20 21 18 15 16 12 14 17 17 62 60 41 36 42 41 39 32 37 36 37 27 36 38 43 37 32 36 39 39 43 37 30 32 39 48 44 41 34 36 33 33 37 40 40 42
29 22 22 22 22 17 17 20 67 51 45 44 39 32 39 42 38 42 46 37 37 28 35 40 37 39 44 43 38 44 41 51 50 65 62 38 37 42 38 43 43 45 51 50 50
37 39 34 27 21 21 22 46 59 48 47 44 39 40 44 40 40 47 46 43 42 35 41 47 47 49 51 48 57 56 56 61 76 84 64 40 42 43 38 42 47 58 61 61 61
38 35 35 36 31 25 26 70 58 53 49 45 44 45 47 44 45 48 52 52 50 47 39 48 46 50 50 51 59 59 56 60 61 62 72 53 43 35 39 36 45 47 62 58 63
41 42 36 34 34 29 49 47 62 56 36 46 49 45 50 49 46 51 55 60 59 55 46 56 57 48 49 51 60 60 59 61 70 82 88 65 56 49 46 42 44 56 59 55 64
45 43 41 36 36 39 56 57 56 36 34 48 50 50 50 49 51 58 62 63 67 56 51 64 63 41 46 61 63 57 67 69 70 74 95 97 73 53 49 64 64 60 58 60 66
57 46 44 40 49 50 61 54 42 36 35 37 41 51 54 51 62 63 65 68 70 67 62 62 60 61 53 60 60 61 63 74 90 82 85 88 77 55 70 58 71 70 74 72 68
50 55 47 50 52 47 54 50 44 49 49 45 45 44 46 52 64 69 72 73 78 72 67 68 70 59 49 64 58 56 59 64 83 90 86 91 66 51 66 74 77 78 74 69 68
48 50 52 62 50 48 48 54 52 50 48 46 47 50 63 73 74 74 67 78 77 68 67 70 64 66 66 67 80 68 41 62 76 88 85 84 80 61 78 83 82 76 70 71 73
38 46 52 83 70 76 77 73 75 64 54 51 70 74 66 59 65 61 73 78 70 52 62 67 84 78 77 87 82 70 71 63 71 64 96 64 74 72 74 82 85 83 85 86 79
28 31 46 60 66 81 80 78 77 74 72 65 73 72 71 61 64 65 64 68 62 45 48 64 80 89 39 60 76 58 50 55 66 65 63 69 72 73 77 81 94 91 88 87 81
33 32 30 40 47 45 52 54 70 72 70 69 65 61 71 65 65 61 51 48 43 39 42 56 59 89 89 84 75 73 53 54 60 56 74 84 81 75 84 97 97 93 90 78 74

GFSSW_700_rhum_015.txt.gz
RH
11 9 7 6 7 7 13 16 16 20 22 23 20 19 16 14 11 12 17 18 18 19 17 11 16 20 17 16 15 13 13 14 13 13 13 14 14 13 13 16 16 18 24 25 26
13 10 8 8 9 13 16 16 23 24 21 20 19 17 15 14 13 18 17 18 18 19 20 19 17 18 18 16 14 13 13 14 15 16 14 14 14 17 18 18 20 23 27 26 23
16 14 14 13 14 17 17 20 24 22 22 21 21 18 16 14 16 16 16 16 18 20 21 19 17 16 17 18 17 15 15 18 14 12 14 16 17 14 13 17 18 18 20 15 12
16 16 14 16 16 16 18 23 22 23 23 27 24 18 14 14 20 20 18 17 18 23 21 16 17 13 12 15 15 9 6 20 18 19 6 10 8 10 13 9 5 14 20 19 14
18 16 15 14 16 18 23 23 23 23 30 29 23 15 13 11 14 18 18 20 20 17 20 12 13 10 9 8 13 18 20 22 23 22 21 21 19 21 21 20 18 18 20 20 21
17 16 16 16 18 24 22 21 22 27 32 21 16 12 10 10 10 12 13 15 15 12 8 8 9 14 19 21 20 16 25 24 26 28 23 22 19 20 20 21 22 20 21 21 22
19 18 18 20 22 20 19 21 22 26 22 14 14 14 13 8 8 7 7 8 7 9 9 14 20 24 25 26 27 26 26 27 29 28 31 25 23 20 25 27 20 19 23 23 24
21 22 22 21 21 20 19 18 16 18 16 13 13 13 9 8 6 4 4 4 16 16 16 21 22 22 20 23 27 25 26 26 26 25 32 29 21 26 27 25 24 18 24 26 25
24 23 22 20 17 16 16 17 20 18 16 13 12 8 7 5 6 4 4 10 15 20 24 22 19 20 19 25 23 16 25 24 26 29 30 28 23 20 23 20 20 17 23 27 28
23 22 20 19 18 16 16 16 19 23 26 21 16 13 8 5 5 4 5 18 23 26 30 28 28 27 23 20 20 21 18 20 28 31 26 20 19 23 26 21 22 22 22 21 26
22 22 20 18 16 16 14 13 19 20 22 22 24 17 7 7 10 6 6 9 14 20 26 24 29 35 29 26 22 24 27 18 28 23 20 29 23 20 21 21 23 24 22 18 20
20 19 19 18 16 16 16 13 16 21 26 12 12 8 7 7 8 6 6 11 18 19 19 24 26 30 35 22 25 29 29 21 16 27 33 34 25 21 23 26 26 23 22 15 18
18 18 18 16 16 16 13 17 13 12 17 13 13 12 9 9 12 9 8 9 16 22 23 24 29 30 24 24 27 26 23 26 33 33 41 33 26 27 26 26 24 26 23 24 24
14 14 14 14 15 18 20 28 15 18 32 31 25 21 19 18 20 16 12 18 21 21 16 23 27 33 24 33 34 28 31 31 33 38 41 36 36 31 28 28 28 28 28 33 37
15 13 12 13 14 11 22 18 16 28 50 34 26 29 32 24 23 25 27 22 19 12 27 35 30 32 34 39 39 35 29 33 32 40 41 39 37 38 36 34 33 32 36 42 44
17 14 13 13 12 11 13 14 15 50 51 40 41 38 38 39 34 35 32 33 28 38 40 41 38 34 38 44 40 38 32 32 36 44 47 47 44 42 39 40 38 42 47 49 50
22 22 16 14 14 11 15 19 58 49 44 43 36 36 45 42 39 43 38 34 34 31 33 39 37 40 45 46 46 51 32 40 48 65 63 44 43 48 53 56 55 56 53 57 62
30 23 22 21 19 14 19 55 50 48 50 45 38 43 44 43 45 46 48 44 44 39 40 41 45 49 50 51 58 58 51 55 62 85 69 43 47 50 46 45 61 61 62 62 60
35 37 35 24 22 22 23 68 54 48 46 42 43 44 47 44 44 47 48 50 52 44 43 45 40 46 57 53 58 60 60 60 62 65 76 55 48 50 50 47 57 58 58 57 62
37 34 34 35 29 25 37 45 54 51 41 44 45 48 49 48 48 51 52 57 60 55 46 56 52 45 43 49 62 62 62 63 64 83 83 64 51 44 48 55 52 55 61 61 65
40 39 35 34 32 33 50 44 54 44 47 43 44 47 48 47 48 52 58 62 66 56 51 52 54 42 50 56 58 61 63 72 71 77 94 98 68 53 51 63 68 62 58 60 68
46 40 39 36 41 43 48 49 40 35 36 41 48 47 52 52 54 59 62 64 61 58 59 57 50 47 50 60 60 69 75 70 71 79 80 83 73 56 64 62 65 62 62 64 69
63 44 41 41 45 51 51 44 42 43 43 42 44 46 43 43 49 58 66 67 62 60 60 58 61 56 62 66 60 54 51 58 77 84 83 86 68 55 63 70 70 73 76 78 86
50 50 49 50 52 51 48 45 47 45 45 44 43 44 46 54 57 61 66 62 69 68 58 55 56 62 60 55 52 46 52 58 81 99 92 83 83 73 76 73 77 86 87 89 90
45 46 50 59 50 49 50 50 50 48 46 45 46 46 49 54 60 61 62 69 72 71 52 63 52 48 59 81 72 55 60 46 64 62 100 70 69 57 71 79 84 85 90 98 95
31 41 46 51 57 65 68 64 60 61 58 53 47 46 43 46 54 62 65 57 43 44 52 63 62 51 44 52 58 47 44 52 44 49 58 61 57 67 69 90 99 100 100 94 74
31 27 35 43 50 69 77 69 72 65 61 57 59 60 56 57 55 49 50 48 51 51 51 54 56 83 76 64 70 53 47 48 60 58 61 71 68 69 82 77 63 58 70 72 70

GFSSW_700_rhum_018.txt.gz
RH
15 12 10 10 7 8 8 8 17 21 24 24 21 17 12 15 19 19 18 17 18 14 11 19 19 16 15 13 13 13 13 13 13 13 14 13 14 13 14 17 16 20 23 24 22
13 12 10 8 8 8 7 17 20 25 24 22 18 15 12 19 20 21 18 19 21 17 14 19 19 16 14 13 12 13 13 13 14 15 14 14 15 16 15 12 14 12 10 9 6
17 12 9 9 8 8 15 21 25 26 24 21 17 16 13 18 16 18 18 18 21 22 20 18 16 17 14 15 14 13 14 13 13 14 16 18 17 14 11 8 13 20 21 19 12
17 15 12 12 11 15 19 25 27 26 24 20 18 16 14 14 22 18 17 18 22 22 22 18 15 13 14 14 11 10 18 20 21 13 13 17 14 19 18 12 18 20 21 21 21
17 16 14 15 16 18 24 27 27 28 23 22 18 15 16 18 18 18 15 17 17 19 17 14 13 11 10 8 8 20 23 24 25 23 23 22 21 22 20 20 18 21 21 22 22
17 17 16 16 18 22 28 28 29 24 28 24 18 14 13 13 16 16 14 17 19 20 17 12 9 13 7 10 18 23 24 26 28 29 28 22 20 20 20 24 25 19 23 22 24
17 16 17 19 22 27 27 25 25 30 22 20 12 11 14 11 12 12 14 15 13 13 10 9 16 19 18 20 21 23 24 26 26 26 29 24 22 23 22 28 26 18 22 26 25
21 22 21 22 26 25 23 22 24 22 20 16 15 13 10 9 8 7 7 8 9 9 14 19 20 21 22 23 24 24 24 25 26 27 29 32 22 26 24 26 25 24 19 24 27
26 23 24 26 24 21 20 18 20 20 18 14 11 10 7 6 5 4 4 9 15 14 21 22 22 16 21 26 22 14 20 18 25 31 31 32 26 20 26 21 21 20 20 25 28
27 26 25 21 19 17 16 19 20 18 12 9 10 12 8 7 5 4 7 12 20 21 23 23 21 21 21 26 17 20 23 22 21 26 24 19 21 23 18 21 21 24 23 22 25
31 26 23 21 18 17 20 19 18 19 19 22 23 10 6 6 6 4 4 11 20 26 28 27 28 31 34 32 24 24 28 25 17 20 22 30 30 22 21 23 26 26 22 18 20
27 24 20 18 17 16 15 17 21 21 15 15 8 6 6 6 6 6 6 11 16 21 22 21 27 32 31 18 24 25 24 22 21 27 31 32 28 26 26 26 26 24 24 18 20
22 20 17 16 16 15 14 17 19 19 9 10 10 9 10 13 12 10 8 8 12 16 19 24 31 31 23 26 31 28 27 30 31 26 37 35 30 28 27 26 26 27 27 29 31
20 18 17 17 16 17 18 18 11 11 19 23 20 23 18 18 20 17 13 17 20 20 24 30 30 33 26 31 35 33 32 31 31 34 41 36 35 35 30 31 32 31 34 39 42
17 17 18 19 21 20 28 24 13 14 40 30 30 32 28 20 24 23 25 18 17 17 25 33 31 34 30 40 38 33 30 33 36 36 46 42 37 41 37 36 36 38 43 45 47
17 16 17 17 15 14 23 15 13 34 40 41 39 38 40 34 30 37 29 31 31 38 39 41 39 35 38 44 40 35 34 36 43 46 50 48 46 50 45 48 47 47 47 49 51
19 15 14 15 13 15 15 15 35 42 40 42 35 42 44 40 39 40 35 32 33 34 30 38 37 40 46 44 45 44 32 36 49 64 63 47 46 57 58 56 58 60 58 57 57
24 22 16 16 13 12 17 32 42 46 48 43 39 44 44 43 45 46 44 43 43 37 40 40 42 47 49 52 54 58 47 53 51 85 72 44 49 63 53 51 60 61 58 56 54
33 27 23 23 19 14 21 68 48 48 46 43 42 45 44 44 45 48 45 47 50 44 42 44 43 51 53 48 56 59 55 59 62 68 75 53 50 58 53 56 64 62 58 56 61
37 38 32 24 23 22 30 49 49 49 47 44 43 46 48 48 48 48 50 55 55 52 46 46 45 45 43 57 62 62 61 62 60 84 80 62 49 46 64 69 64 60 62 64 73
39 36 35 33 27 27 39 42 50 50 44 42 46 45 49 49 50 48 53 58 60 55 51 49 50 42 40 57 63 67 66 68 68 74 92 97 66 53 58 56 61 60 63 64 69
44 39 35 34 35 37 42 44 48 45 42 38 44 47 47 48 51 53 57 60 64 59 44 47 40 43 29 64 66 68 70 69 60 72 81 87 72 52 64 59 61 57 57 64 76
49 41 38 36 38 39 44 45 38 36 36 38 39 42 43 45 50 58 63 59 58 59 53 44 47 41 35 62 67 65 70 71 74 87 85 84 66 56 65 63 64 71 76 82 85
59 43 41 40 45 49 47 42 43 47 44 42 40 41 43 47 51 59 60 60 60 58 57 56 54 51 46 39 45 52 57 66 80 98 90 78 72 54 65 70 64 65 92 92 84
50 47 45 47 51 46 50 44 46 42 40 41 42 42 45 46 47 47 52 59 60 55 44 49 47 43 45 39 34 40 44 48 67 63 100 54 71 60 66 72 73 77 78 67 58
43 43 47 50 49 47 49 48 47 47 49 47 45 46 45 40 45 44 42 39 38 37 47 53 51 47 40 45 50 47 42 46 44 47 53 59 56 52 68 74 83 77 76 72 70
28 31 44 48 56 58 55 53 49 50 52 50 46 47 45 50 46 45 44 45 48 45 48 54 49 52 50 56 60 46 45 44 52 54 53 58 51 69 74 73 71 83 70 76 72

GFSSW_700_rhum_021.txt.gz
RH
17 14 12 10 14 9 7 9 8 18 23 23 19 16 12 20 18 15 16 16 9 8 18 17 17 15 14 13 14 13 13 13 14 14 14 16 15 15 14 16 18 18 20 19 19
18 16 13 11 11 8 8 8 17 21 25 21 19 13 23 23 25 22 19 23 11 16 19 18 16 14 13 13 13 12 13 13 14 14 14 16 16 16 15 13 11 10 8 6 5
18 15 12 10 8 8 9 17 19 27 24 20 16 14 22 21 21 20 21 22 18 17 19 19 17 14 13 12 13 13 13 14 13 16 16 16 15 14 12 13 19 20 20 19 11
20 18 11 9 8 9 16 20 25 26 22 18 16 14 19 19 25 19 20 23 22 21 18 17 18 16 14 14 14 13 20 21 13 13 17 18 17 18 14 18 20 22 22 21 22
19 18 12 10 12 18 20 23 28 24 23 19 17 14 15 17 19 16 18 22 21 20 18 14 14 12 9 9 15 19 24 25 24 23 23 19 20 19 21 22 19 22 22 23 23
18 18 15 15 19 21 25 29 26 29 26 20 16 16 20 19 18 14 16 19 21 20 20 13 10 9 8 8 14 21 25 26 27 27 24 21 20 20 20 26 25 21 23 23 24
20 18 19 19 21 26 29 28 34 30 25 18 17 16 18 21 16 18 16 19 21 21 16 14 11 7 8 18 23 21 27 26 26 27 28 24 21 23 24 23 28 22 23 26 26
19 20 19 23 28 30 28 29 32 29 21 18 16 16 16 13 15 16 15 16 15 13 13 19 19 20 21 22 23 23 24 24 26 28 29 30 25 26 24 20 23 28 24 24 27
23 23 26 30 30 27 26 27 28 22 21 19 18 15 9 8 7 8 9 10 12 12 21 22 21 18 22 24 21 16 16 14 22 30 31 30 22 20 19 20 26 21 20 22 27
31 32 32 28 26 26 24 23 22 22 18 16 13 13 9 8 5 4 5 14 18 18 22 21 19 17 20 18 14 17 20 22 22 20 19 19 26 24 20 22 23 24 24 23 22
35 33 30 28 25 23 21 22 24 24 22 22 12 8 7 6 5 4 6 12 17 18 22 24 23 26 30 22 15 18 21 23 21 21 20 29 29 25 24 25 26 25 24 23 18
31 29 25 21 20 19 19 20 25 19 20 12 7 6 7 7 6 5 6 9 18 19 20 24 24 29 28 18 22 28 26 25 26 27 24 35 30 28 28 27 26 25 25 20 20
30 25 23 21 20 21 20 27 24 11 12 14 12 10 8 10 8 8 7 9 14 18 16 21 28 28 23 24 30 31 28 29 30 28 31 36 33 29 28 28 30 29 28 31 34
26 21 20 19 17 17 17 18 21 11 16 18 19 21 15 14 15 15 12 14 14 18 24 26 29 33 30 30 33 29 30 32 34 38 39 36 34 36 32 33 34 33 37 42 45
23 20 19 18 18 15 18 14 13 18 40 26 29 28 21 16 20 25 23 18 13 15 19 28 29 34 34 36 37 35 35 36 34 40 41 44 39 48 38 36 36 37 40 44 49
19 18 18 20 21 25 27 21 16 29 36 36 34 36 30 27 26 30 31 28 32 37 39 38 39 37 36 43 42 39 38 41 47 50 50 49 46 54 48 42 43 47 48 51 55
16 17 17 17 17 16 27 16 22 26 34 34 38 39 36 34 34 37 34 33 33 37 32 38 38 39 43 43 43 44 35 39 47 54 52 48 47 63 57 52 56 60 62 60 58
17 15 16 16 13 22 16 24 29 41 44 35 35 41 41 40 42 41 41 38 37 34 37 37 42 43 46 46 47 54 46 46 50 60 60 53 58 68 58 60 66 61 59 61 59
26 20 16 17 12 14 18 46 43 43 41 41 41 44 42 42 46 47 43 47 48 42 40 42 41 49 42 44 52 58 54 55 60 70 72 54 62 65 60 59 64 64 63 59 58
36 28 24 23 16 15 28 45 44 46 45 40 41 43 46 48 49 48 50 56 54 48 44 43 45 50 46 58 62 61 61 61 58 73 67 56 60 52 58 69 70 61 58 54 54
40 38 28 26 22 21 36 41 47 48 46 46 43 43 48 50 49 49 55 59 59 51 36 34 34 40 35 52 63 67 67 67 67 76 83 89 58 48 58 58 62 62 58 61 72
42 38 36 29 31 31 36 40 49 49 47 44 46 43 44 45 48 51 55 58 59 53 43 32 26 31 31 54 67 69 71 68 54 66 72 83 61 41 45 55 67 62 58 61 60
46 40 36 34 37 35 41 43 45 46 41 39 40 42 43 43 45 52 57 57 56 51 44 37 34 30 33 64 69 69 68 61 68 84 82 81 52 46 48 58 69 60 64 59 72
53 44 40 38 42 40 39 44 39 38 38 40 39 42 42 43 45 49 50 51 50 48 44 34 34 34 33 32 38 42 42 59 82 96 80 68 60 37 50 62 62 70 71 76 76
63 47 42 43 46 46 48 41 40 44 43 42 41 41 41 40 41 40 40 38 35 37 34 38 39 43 41 36 37 37 41 49 60 57 94 45 58 45 62 66 65 71 74 74 75
54 47 48 46 49 47 46 42 44 40 40 41 41 42 41 36 34 36 33 29 31 34 41 42 50 47 42 41 42 41 36 47 53 51 58 62 54 56 57 63 70 80 85 90 90
42 42 51 50 48 46 44 46 48 50 50 48 45 41 42 35 35 32 31 36 37 39 40 44 48 53 51 52 51 46 42 42 44 50 54 55 53 60 63 71 82 79 81 83 85

GFSSW_700_rhum_024.txt.gz
RH
16 15 11 8 9 16 12 7 10 8 16 21 24 19 16 16 20 20 14 6 13 16 16 15 13 17 19 18 15 12 13 14 16 15 17 16 19 15 16 25 17 19 26 22 19
19 18 15 12 10 14 7 9 8 16 22 24 21 16 20 20 20 21 12 5 14 18 16 16 15 14 14 14 14 15 13 16 15 18 17 17 18 18 24 24 23 20 15 13 11
19 18 16 12 11 11 8 8 16 23 25 21 16 19 18 15 21 21 19 10 18 17 17 15 14 14 13 14 14 16 16 16 14 14 19 18 16 12 22 22 24 26 15 7 4
19 16 12 12 10 8 9 15 25 26 23 19 14 17 16 17 30 21 21 14 18 18 17 18 15 13 16 14 12 12 11 11 9 13 16 21 19 18 22 19 19 21 21 22 20
19 17 13 11 10 10 14 23 28 25 21 16 14 16 16 19 20 19 22 23 21 19 18 17 16 13 16 14 18 23 21 22 22 23 22 19 23 22 17 19 21 21 22 23 23
19 17 16 13 13 16 23 29 27 24 20 18 15 15 20 33 22 17 22 23 21 19 17 13 12 10 8 13 22 22 26 27 28 26 23 22 20 21 22 25 26 21 22 23 24
20 18 17 16 20 23 29 29 27 25 23 20 17 16 20 23 18 14 17 18 21 21 18 14 10 15 8 14 14 22 27 28 27 27 28 24 22 24 21 22 24 26 22 24 25
21 20 19 21 25 31 30 31 30 29 25 21 16 18 24 20 18 17 16 18 19 18 21 22 19 10 16 22 24 27 25 20 27 28 28 28 23 29 25 25 23 24 21 24 26
23 22 23 28 32 31 34 32 33 26 20 18 18 24 18 14 13 11 12 13 15 18 26 23 20 22 23 24 21 21 15 19 26 25 26 26 26 32 21 20 24 24 24 22 25
24 27 33 32 31 32 33 34 25 22 23 24 20 20 11 9 6 5 7 18 20 25 25 24 20 23 22 16 12 18 19 23 24 24 21 33 35 24 23 23 26 25 21 22 25
34 34 33 30 31 32 30 25 24 29 23 26 20 12 9 6 5 6 8 19 21 22 29 22 25 27 24 18 13 13 23 27 28 19 25 40 34 28 29 28 26 25 24 23 23
35 35 31 30 30 28 23 20 26 23 20 11 11 10 8 7 6 6 8 16 19 24 18 22 26 24 23 16 19 28 31 30 30 25 28 40 34 29 27 26 25 24 23 22 27
34 31 29 27 25 22 23 29 22 18 26 14 12 12 9 10 7 7 10 10 15 17 20 27 25 23 21 22 34 34 37 42 40 37 28 39 37 36 28 28 29 28 28 30 30
29 28 27 26 24 24 28 25 13 12 29 21 23 18 12 14 15 11 12 12 13 19 26 25 27 30 30 32 33 36 32 33 37 42 26 33 26 40 40 37 34 33 34 36 38
29 26 24 22 21 20 25 24 12 22 31 24 28 22 17 19 21 24 20 15 15 17 18 26 28 31 44 36 36 48 32 34 33 46 42 38 30 44 43 51 53 37 41 44 46
26 23 21 21 18 19 17 21 16 38 35 33 32 36 29 26 24 28 27 26 28 30 31 30 36 37 36 38 37 35 35 36 46 53 41 47 41 39 45 60 65 45 46 48 55
22 20 19 20 19 19 23 15 32 36 30 38 40 36 31 31 31 33 32 32 37 40 44 40 39 37 39 48 41 53 49 36 45 45 37 51 43 54 66 53 54 53 56 59 59
19 18 18 18 18 20 26 21 37 34 46 34 36 38 36 37 40 37 38 47 33 32 46 43 44 47 43 40 45 54 53 50 48 38 36 49 36 54 62 53 54 61 61 60 60
16 16 15 14 13 19 17 56 46 47 34 34 39 46 41 39 43 40 40 40 37 34 51 52 47 44 41 40 45 62 62 51 65 58 61 41 56 66 56 57 61 64 64 61 57
18 15 15 14 17 17 29 37 34 35 36 36 45 42 50 49 51 49 52 45 45 38 30 31 56 48 42 42 54 58 56 63 61 77 48 28 41 37 50 70 65 70 67 61 57
28 25 21 19 14 20 46 40 40 40 41 39 39 40 45 47 48 44 48 49 44 40 30 25 27 49 35 53 63 67 69 65 65 67 60 55 31 44 60 64 63 62 62 64 59
40 36 28 26 20 21 34 42 43 45 44 42 42 42 45 47 46 45 48 47 43 36 32 24 19 42 44 34 54 63 71 68 63 60 71 65 46 46 50 48 51 60 59 60 67
40 39 32 29 34 29 36 42 46 47 46 43 42 42 42 42 44 46 48 47 40 32 31 26 34 40 44 62 58 73 72 60 61 61 66 73 47 51 53 58 75 62 57 64 71
45 45 38 35 39 33 35 43 46 47 44 38 38 40 42 40 39 44 45 37 32 29 28 26 28 37 34 35 44 51 56 67 73 84 64 58 54 53 56 61 75 70 56 72 80
48 46 40 43 43 40 42 42 42 40 40 40 41 39 40 39 40 38 33 30 28 27 29 33 32 36 37 35 40 68 52 65 70 73 75 64 56 57 63 71 66 57 67 74 82
58 47 43 41 45 49 49 44 40 43 42 42 38 39 38 34 30 24 25 23 24 29 35 37 44 37 36 35 36 45 46 70 76 76 77 75 75 72 67 59 59 64 72 82 92
55 49 49 49 51 50 48 44 47 44 41 41 43 41 38 32 26 22 21 22 29 37 39 42 44 48 50 43 46 60 45 48 54 65 81 74 67 76 77 91 85 81 83 93 91

GFSSW_700_rhum_027.txt.gz
RH
15 14 12 10 6 8 15 21 10 10 11 14 23 23 18 11 12 18 30 12 14 14 14 14 17 19 19 20 16 14 14 14 14 14 15 16 16 18 26 27 35 41 53 62 30
18 18 15 13 9 9 16 11 8 10 13 22 24 19 13 12 25 34 6 14 16 17 17 15 17 19 19 18 14 14 11 12 13 14 14 14 14 19 27 25 29 40 34 64 18
20 19 17 14 12 11 14 7 9 13 22 26 20 16 13 20 36 33 8 15 18 16 16 16 14 18 17 16 15 14 14 15 14 14 13 12 13 16 17 20 24 29 42 66 16
20 20 17 14 12 12 9 9 12 22 27 23 16 15 17 30 32 27 14 16 18 18 16 16 20 17 16 16 16 14 13 12 13 16 17 16 16 16 16 18 23 28 42 52 15
20 19 14 13 12 11 9 12 21 26 25 20 14 18 21 38 36 24 19 19 17 18 26 23 19 16 15 15 14 16 15 15 17 19 22 20 20 17 18 20 23 31 44 57 69
20 18 15 13 12 10 13 22 27 27 22 17 15 20 30 35 18 22 24 19 30 25 23 22 20 18 15 16 19 21 24 26 26 26 22 24 22 25 23 24 25 30 40 50 54
19 18 15 12 12 14 25 28 30 26 21 16 14 17 37 38 16 17 19 18 16 22 25 11 22 19 21 25 24 23 23 27 27 29 30 26 21 20 24 25 26 31 34 43 51
18 17 15 14 18 23 28 32 30 25 19 17 15 16 42 20 16 13 15 17 18 18 15 13 11 27 26 25 23 23 22 21 26 28 29 27 22 21 28 29 28 26 34 40 47
20 18 19 22 28 31 34 32 32 25 20 17 16 30 34 14 15 13 14 30 18 18 25 23 24 26 22 24 21 19 17 15 24 26 27 24 21 28 32 24 26 26 27 32 42
22 22 22 29 31 34 35 36 27 22 19 18 19 33 15 29 9 12 13 14 34 26 26 27 25 24 21 18 15 13 13 17 16 25 23 22 23 28 31 29 31 32 32 35 36
27 29 32 32 34 37 38 28 26 24 35 40 31 37 14 8 7 8 20 25 30 35 29 27 24 20 22 23 21 17 16 18 21 27 24 27 26 31 34 32 34 34 37 40 48
35 34 33 34 37 35 29 64 40 39 31 25 19 14 10 15 29 18 21 32 32 25 27 20 23 30 26 25 22 23 24 23 27 30 20 30 27 32 36 40 40 40 43 47 30
37 33 31 34 32 30 30 40 33 25 32 29 25 33 12 31 22 10 16 25 24 23 19 22 30 21 25 29 27 28 28 33 32 32 32 30 28 33 37 40 43 45 50 52 55
36 32 30 29 27 26 31 25 22 30 30 30 32 21 20 16 18 8 9 22 26 21 22 28 20 32 32 34 34 30 38 40 38 34 25 31 22 32 36 42 50 60 66 65 61
34 32 30 30 38 36 28 21 17 33 29 26 32 15 16 34 30 17 14 18 26 29 24 32 33 36 36 42 31 39 27 42 41 36 28 28 22 32 35 42 53 66 72 43 42
32 29 30 28 23 25 27 15 20 51 34 34 36 39 40 39 24 26 24 18 24 31 30 34 28 44 46 44 34 33 47 41 43 36 33 25 28 33 34 41 57 71 68 44 46
27 27 26 23 20 25 22 20 36 40 36 36 37 39 40 42 36 44 44 46 40 37 37 38 42 48 34 43 48 43 39 35 38 38 36 38 33 40 53 58 62 73 74 49 53
26 25 24 21 18 21 17 47 40 43 32 38 38 39 40 43 50 48 42 43 38 42 34 34 44 47 41 44 46 47 44 46 45 37 29 39 26 42 58 63 58 67 63 55 60
25 23 22 23 23 24 27 46 35 33 40 38 38 37 41 43 46 51 52 50 32 32 43 39 41 47 36 43 43 50 50 51 49 58 49 26 41 54 54 65 70 74 74 79 66
22 22 20 20 19 22 57 50 50 45 42 38 36 42 39 43 45 46 50 38 47 26 32 37 47 49 43 28 55 44 48 52 52 69 43 21 25 27 60 66 71 72 76 83 73
21 36 18 15 14 31 54 54 34 28 39 45 45 44 45 50 47 51 55 40 35 30 29 41 42 46 39 47 39 44 50 55 49 49 50 43 29 44 47 50 55 67 76 82 91
27 68 17 15 40 53 62 56 44 37 36 41 57 53 52 55 54 57 58 65 32 19 54 18 44 43 34 41 28 55 52 50 51 45 52 61 50 49 47 58 63 65 80 93 92
72 70 23 22 63 55 52 42 54 43 58 52 43 48 48 60 58 64 65 36 27 21 54 23 56 40 34 56 66 56 52 56 58 68 54 57 49 50 56 68 75 82 82 86 89
79 68 35 31 72 55 54 48 45 45 45 43 41 39 46 57 55 58 40 31 20 18 22 25 56 45 39 37 40 43 45 43 47 59 62 54 46 43 47 60 63 63 75 86 90
64 81 65 55 52 66 62 61 61 46 44 42 39 60 64 60 63 67 71 23 18 18 25 34 65 54 52 44 42 42 47 49 50 50 55 55 53 52 58 67 71 75 90 90 93
65 46 43 51 65 72 60 62 59 55 48 51 62 63 61 50 49 62 60 56 61 27 56 36 74 37 35 52 42 43 48 50 49 55 57 57 58 65 70 68 73 84 89 97 98
57 46 43 41 46 70 55 67 63 52 41 62 66 60 57 60 41 34 24 31 52 70 70 52 40 45 47 37 35 52 53 50 54 58 61 65 66 64 67 82 88 88 89 95 97

GFSSW_700_rhum_030.txt.gz
RH
12 13 12 12 10 6 6 10 21 17 14 13 13 20 22 13 13 28 38 12 15 14 14 16 17 18 18 19 16 15 18 19 18 21 19 18 19 21 24 26 31 50 48 51 25
17 17 17 16 12 8 6 9 22 9 10 12 22 24 15 17 37 42 29 14 14 17 15 16 18 18 18 19 14 14 13 13 13 13 14 14 13 20 27 26 33 49 67 38 27
20 20 19 17 15 10 7 14 12 9 11 21 25 19 13 34 41 38 10 15 17 16 16 24 20 18 18 16 14 14 15 13 13 12 12 13 14 19 19 21 28 36 58 13 8
21 20 19 18 15 11 10 16 8 10 21 26 21 14 22 39 38 24 12 18 20 17 14 17 18 18 16 15 15 14 12 10 13 13 12 13 12 15 15 19 23 28 37 54 27
22 20 19 17 14 11 14 8 10 20 26 23 16 15 35 43 37 17 10 18 18 25 26 24 19 16 15 14 14 13 10 13 14 16 18 16 16 15 17 18 22 32 45 58 65
22 20 18 15 13 12 10 10 19 28 25 19 17 17 36 53 32 27 15 17 29 26 22 21 19 17 13 13 16 16 17 18 20 22 14 18 21 18 18 22 22 31 41 53 62
20 20 17 13 12 11 10 21 29 27 22 17 17 22 43 45 30 29 20 22 32 30 25 25 21 18 18 22 21 20 22 23 24 26 27 23 21 19 23 24 25 28 31 42 49
19 19 15 12 11 11 24 30 28 24 19 15 15 18 52 36 21 16 26 23 21 29 28 21 21 26 25 24 20 19 21 22 23 24 25 23 24 19 22 25 25 25 28 34 44
20 17 14 12 15 26 31 30 28 26 19 16 15 40 45 15 15 22 16 27 28 14 13 8 20 21 25 22 21 21 19 20 25 23 26 24 22 23 28 30 28 25 25 32 38
18 17 15 19 28 32 33 36 31 24 20 16 22 47 24 27 18 10 12 14 27 20 20 22 28 26 24 22 21 17 13 14 16 23 20 20 20 25 29 28 28 26 25 27 33
21 21 24 29 33 36 37 31 26 24 37 42 28 37 22 8 10 15 11 12 35 35 32 26 25 24 22 21 18 16 14 14 17 23 22 19 22 26 30 30 32 33 34 35 37
28 32 33 31 38 37 35 60 52 42 41 39 30 32 16 29 26 20 17 34 32 31 28 20 22 27 24 16 18 18 20 20 23 25 18 26 24 29 34 37 38 41 45 45 45
35 35 33 39 40 37 71 71 45 26 34 34 35 30 15 35 31 32 22 30 27 26 20 28 30 17 11 24 23 22 24 32 30 29 28 26 26 30 36 40 43 47 52 55 49
36 33 38 39 36 41 46 43 29 32 30 26 28 20 18 35 26 25 23 28 24 20 18 28 29 26 27 29 29 26 38 36 32 31 26 26 24 30 35 41 48 56 57 57 61
34 34 39 37 41 38 37 25 32 42 40 29 30 32 30 38 34 16 8 19 24 26 26 30 30 31 32 39 25 36 37 26 37 35 32 25 30 26 34 40 56 66 72 71 73
36 32 33 36 41 41 30 21 27 58 44 30 30 35 33 36 38 35 26 29 30 25 28 33 29 39 43 29 33 26 42 39 39 36 39 30 24 31 34 38 54 68 76 78 64
36 38 34 38 41 35 24 18 39 47 33 33 32 34 36 38 38 37 38 39 39 33 35 35 38 45 28 40 43 39 38 40 50 48 48 35 31 39 40 45 54 70 73 73 70
35 36 33 33 26 31 24 41 50 37 28 29 33 36 37 39 41 41 38 40 37 41 32 32 43 43 43 38 41 43 39 44 55 64 50 36 28 50 48 43 49 58 72 61 82
33 31 29 28 23 26 24 54 38 30 33 33 33 33 39 42 42 42 44 47 41 42 43 34 42 31 30 34 37 44 50 44 41 48 59 31 40 54 60 64 64 71 74 81 87
29 28 25 28 22 24 38 49 48 38 34 32 31 33 33 36 39 41 43 50 44 29 43 39 45 44 38 40 53 40 40 43 52 69 51 27 29 53 58 63 67 65 72 79 83
25 27 22 26 27 33 57 58 53 34 40 34 34 36 36 38 40 43 47 44 48 24 32 34 44 45 40 43 36 41 42 46 42 41 53 57 37 39 44 54 56 64 67 71 80
25 60 47 22 20 37 49 55 51 25 32 44 45 40 42 46 45 49 52 61 27 26 50 18 46 44 33 30 30 47 49 48 50 52 57 56 55 42 47 52 59 65 72 80 90
32 95 61 18 57 49 63 59 52 52 48 53 57 56 57 51 56 56 61 32 24 21 42 20 52 44 43 54 52 40 41 42 49 56 64 67 47 44 48 60 71 78 84 80 96
90 80 38 19 80 62 64 64 60 53 59 60 59 60 58 61 60 65 54 31 21 15 20 22 53 45 42 36 37 35 35 37 40 43 53 57 55 51 50 67 78 75 73 74 75
92 75 36 28 81 62 54 53 61 50 48 54 58 56 58 58 60 64 72 27 19 16 18 23 47 53 50 42 41 37 35 36 38 44 46 48 48 52 67 68 68 75 78 83 82
81 87 66 79 61 69 60 56 55 54 58 57 57 57 59 58 55 61 64 60 64 30 41 32 56 36 22 46 47 33 38 50 44 47 45 51 55 59 63 66 74 74 65 71 73
74 69 67 52 73 71 72 61 56 61 55 58 57 61 58 60 54 57 52 52 58 62 69 61 37 38 36 35 31 53 56 51 50 53 57 61 60 62 80 83 78 73 72 78 70

GFSSW_700_rhum_033.txt.gz
RH
16 13 10 11 9 8 7 6 8 11 14 21 20 14 16 18 12 14 18 14 14 15 15 12 10 15 15 19 18 19 21 18 22 30 28 26 26 28 26 32 34 35 32 31 24
13 12 15 15 14 11 8 6 7 18 16 13 13 16 18 28 43 40 16 14 15 15 15 16 18 18 18 18 17 16 15 13 17 20 16 15 13 14 22 17 30 32 41 55 27
15 17 18 18 16 15 10 5 8 21 10 11 17 20 24 42 48 33 13 15 18 17 16 19 18 18 18 18 15 14 13 13 13 12 12 14 14 24 22 26 25 19 15 20 23
20 20 20 18 17 16 10 6 15 11 10 17 22 17 37 40 42 31 13 20 19 16 18 17 18 18 17 16 15 13 11 12 12 12 12 12 13 17 19 24 27 31 25 10 5
21 20 20 18 17 14 9 10 14 10 16 23 18 20 37 46 37 28 14 21 27 26 20 20 20 18 16 16 14 13 11 11 12 12 12 14 14 16 19 20 26 30 33 36 29
22 21 19 19 16 12 10 14 9 16 24 23 14 28 42 50 35 18 16 26 31 29 24 23 21 18 14 13 14 13 12 9 9 10 13 16 18 15 18 18 25 32 36 48 51
22 21 20 18 14 12 12 9 16 26 25 18 16 26 42 40 32 25 19 24 30 30 24 22 18 19 19 20 17 17 21 23 22 17 24 22 23 20 19 20 23 24 34 45 49
22 20 19 15 14 12 10 18 27 25 21 14 17 28 53 30 36 16 23 17 28 30 26 20 17 20 28 19 19 19 22 23 24 25 25 23 23 20 23 23 24 26 26 34 47
19 19 17 14 12 14 21 28 27 21 16 15 18 34 49 20 15 17 16 25 22 22 13 12 21 24 28 19 20 19 21 23 24 23 26 22 23 21 24 25 26 25 26 30 42
20 17 14 13 16 27 30 31 26 19 16 18 36 42 33 29 16 9 14 19 12 14 11 9 20 25 22 24 25 20 16 22 23 23 20 21 25 26 28 27 27 27 25 32 35
19 16 14 22 29 30 32 29 24 22 21 34 39 32 27 22 14 12 12 16 18 26 28 23 27 27 22 21 17 16 16 17 24 23 21 18 25 26 30 30 30 32 29 28 31
20 19 26 29 31 30 32 42 43 41 42 38 36 36 23 29 22 22 12 23 29 30 32 29 26 28 24 18 12 18 20 26 25 27 20 25 26 26 30 31 34 32 32 34 34
24 30 31 34 34 38 81 65 55 42 36 32 34 21 26 32 31 18 31 33 30 29 27 23 29 19 20 22 14 27 24 29 29 29 29 19 28 29 33 35 38 40 36 33 34
34 32 36 37 37 70 64 49 35 35 30 24 25 15 24 33 28 13 22 27 27 24 25 28 26 21 19 28 23 32 31 28 27 25 32 29 29 31 33 38 45 50 48 44 39
35 36 43 40 43 57 45 35 37 45 60 31 30 28 27 40 33 14 16 23 25 24 21 29 28 33 32 35 33 37 34 25 23 24 36 24 31 32 37 43 48 49 52 51 49
36 42 43 42 40 45 39 31 39 52 43 30 25 26 19 32 39 36 13 30 28 24 29 31 32 32 38 30 32 35 38 39 39 40 45 45 40 37 38 43 50 52 55 57 65
35 41 41 37 32 45 29 34 40 61 32 28 32 35 37 37 36 32 26 33 38 32 34 37 39 34 27 41 43 40 38 46 49 65 59 42 48 54 43 40 45 49 60 60 55
39 34 35 35 32 37 25 30 57 35 29 26 32 36 38 38 39 38 37 37 41 41 36 39 44 44 26 37 39 40 43 50 60 81 61 24 51 63 56 58 65 70 70 66 68
40 38 33 30 34 34 20 55 51 32 31 33 34 36 38 40 40 44 44 43 30 39 39 43 47 37 25 15 36 35 52 46 34 52 59 42 57 58 56 57 64 75 66 73 84
36 34 32 32 30 31 21 53 50 36 34 33 33 33 36 37 43 44 44 45 28 42 40 50 46 44 39 45 38 46 35 40 49 67 62 45 52 54 62 60 65 70 77 91 95
34 29 28 29 26 26 35 54 54 41 32 33 33 32 38 36 39 44 49 44 37 27 26 45 46 36 42 37 29 43 45 46 44 44 64 82 47 45 54 67 66 74 78 77 79
30 28 27 29 28 28 22 55 55 48 30 35 42 35 42 39 44 46 49 54 32 29 34 24 41 36 38 38 34 36 45 48 52 51 55 57 53 48 49 48 59 72 74 78 87
28 53 62 25 28 28 48 60 49 31 38 44 43 45 49 46 51 52 54 48 26 18 22 22 33 43 44 51 42 36 38 38 40 47 50 61 48 40 53 67 64 79 76 74 69
74 85 85 27 38 34 67 63 53 49 51 52 49 44 54 56 55 59 52 31 24 18 20 22 26 37 43 42 40 37 36 35 36 40 45 50 49 47 58 68 76 77 76 77 82
95 77 59 21 79 64 63 57 55 52 55 52 56 50 57 58 61 64 52 32 23 16 19 21 28 38 42 36 29 35 32 30 33 37 44 46 47 58 68 69 72 71 77 80 81
87 86 48 42 70 60 54 54 59 54 50 44 54 56 59 59 60 65 59 42 34 22 15 18 23 29 19 25 37 27 39 49 49 49 50 54 55 59 63 68 69 71 77 76 63
94 96 64 74 42 62 65 57 56 56 55 56 55 58 60 60 56 60 62 54 47 38 23 20 23 20 21 27 27 57 56 52 48 50 52 57 62 62 67 66 68 74 72 68 64

GFSSW_700_rhum_036.txt.gz
RH
25 22 16 13 11 10 8 7 6 8 10 12 17 25 19 15 16 12 11 10 12 15 12 9 8 10 20 22 19 17 17 23 24 47 40 27 29 28 32 34 41 42 37 19 18
23 14 10 11 12 13 12 8 6 7 11 14 19 18 16 16 20 17 11 13 15 15 16 12 14 14 17 20 19 20 17 21 25 26 31 25 20 14 25 24 18 24 29 20 21
15 11 13 14 16 18 16 10 6 7 19 16 14 16 18 42 39 18 14 17 17 17 17 20 21 19 19 20 17 17 14 21 23 16 13 13 15 17 18 16 15 12 11 15 27
11 17 17 18 19 18 16 11 6 11 19 11 14 18 40 41 40 14 19 20 17 19 19 19 19 19 18 18 13 12 13 13 12 12 10 13 18 17 18 23 22 18 19 9 13
17 19 18 19 19 18 15 11 7 16 10 12 19 26 40 41 32 18 20 26 28 27 30 23 21 22 19 14 12 13 12 13 13 13 12 13 16 18 20 22 25 30 23 33 33
20 20 20 20 19 17 14 10 13 9 11 20 18 34 43 43 37 18 27 32 33 32 26 24 21 19 18 19 13 12 11 10 13 15 15 14 18 20 20 18 20 28 23 40 48
21 20 20 20 19 16 12 13 9 12 20 22 16 40 46 38 34 21 28 31 32 31 25 22 21 22 16 15 15 14 6 7 11 12 10 16 18 18 18 20 21 23 26 34 48
21 21 20 20 18 16 12 10 16 23 24 18 24 37 47 36 30 21 25 26 30 30 24 22 23 21 20 18 19 18 22 23 22 24 19 19 21 18 20 22 23 26 27 31 52
22 20 20 19 17 13 11 19 26 25 20 15 21 33 45 20 26 21 18 15 25 25 21 21 24 19 20 18 18 20 22 23 24 25 25 27 24 21 23 24 25 26 29 32 46
21 19 19 15 13 14 26 28 24 19 15 17 22 38 32 30 18 11 13 12 16 14 10 19 16 16 23 19 20 21 19 19 24 25 26 25 23 23 24 26 28 27 27 30 33
20 17 15 13 18 29 28 26 21 17 14 18 38 32 29 27 26 11 11 9 11 8 11 21 26 28 26 24 18 19 21 22 25 23 21 19 25 29 29 28 28 27 27 26 32
19 16 15 24 30 31 32 29 21 19 34 38 40 33 26 29 26 14 12 17 17 24 33 33 31 24 22 20 16 25 22 24 24 28 20 26 28 29 29 29 29 29 29 30 31
18 19 27 32 35 36 38 26 35 42 38 33 35 30 26 31 28 14 19 20 30 31 32 30 26 24 24 21 18 26 30 28 30 29 25 27 33 36 36 34 34 34 33 34 38
22 30 34 38 39 57 41 45 47 43 35 33 35 23 34 37 27 21 30 30 28 27 26 27 26 20 24 26 27 31 32 34 32 28 20 26 34 44 41 39 40 35 33 30 34
33 35 42 39 47 53 60 54 45 46 46 23 33 24 30 34 22 17 26 28 24 27 27 27 24 28 31 33 34 23 26 24 25 34 35 34 38 42 48 42 40 40 39 34 37
35 44 47 43 49 53 47 43 44 47 35 35 32 26 34 37 34 10 25 30 28 25 29 29 32 30 37 33 35 37 31 35 39 43 47 51 45 43 49 41 43 44 43 45 51
37 47 48 44 46 49 40 37 41 60 31 31 25 29 30 31 28 14 27 28 32 31 29 30 38 26 29 39 41 35 39 45 52 66 62 42 50 52 48 45 46 44 56 67 67
39 43 44 37 38 48 36 37 54 36 31 27 36 36 40 38 39 39 30 39 37 37 37 40 45 42 29 40 43 42 45 49 58 74 52 48 65 61 56 57 63 71 75 88 87
37 41 41 34 31 40 34 39 51 35 30 33 36 39 37 39 41 40 40 39 40 43 38 46 44 39 22 24 46 42 49 46 41 58 57 58 65 66 66 70 76 77 83 72 92
36 36 37 32 34 35 30 57 47 34 33 31 37 38 38 36 40 46 45 45 30 44 40 45 46 39 40 33 37 34 35 47 46 63 61 52 60 61 61 64 69 73 80 90 89
41 40 34 28 34 33 30 59 52 35 33 33 35 35 36 34 33 46 45 45 33 44 41 46 31 36 38 34 28 38 47 46 45 51 67 82 52 48 58 64 70 82 88 98 98
38 36 31 28 32 33 22 59 57 47 33 33 34 36 37 37 42 45 47 46 33 26 25 46 35 40 36 38 30 30 41 33 31 45 53 57 51 56 53 61 72 78 82 78 93
35 31 28 29 27 29 21 55 56 50 42 33 40 38 40 40 46 48 47 46 32 24 21 33 38 40 43 48 37 40 47 38 39 42 44 52 45 48 61 54 56 69 71 80 85
36 67 35 26 26 25 47 62 53 40 35 37 45 44 49 45 48 47 50 47 35 20 27 24 37 38 37 40 37 36 35 35 36 38 42 47 45 47 58 60 65 68 70 76 77
41 64 51 27 25 22 62 66 57 45 47 45 42 44 52 54 54 50 51 41 27 17 21 22 25 33 38 42 43 37 25 32 31 31 39 46 51 58 59 63 67 70 74 80 82
75 65 65 55 42 30 56 59 47 47 51 52 48 47 60 58 51 43 44 33 27 18 16 19 22 26 32 25 15 26 27 38 41 49 51 54 57 64 69 70 74 76 81 79 78
93 82 52 32 80 64 47 48 55 59 52 50 50 58 61 59 58 59 52 48 37 28 22 16 16 22 15 16 33 26 33 48 50 47 49 51 54 58 72 78 77 73 74 77 68

GFSSW_700_rhum_039.txt.gz
RH
24 28 26 21 15 11 12 10 8 7 6 14 18 20 23 28 20 15 13 12 8 8 7 6 15 17 12 12 14 17 20 37 61 51 52 54 52 36 33 34 35 37 36 21 13
28 28 23 16 9 10 11 12 11 8 6 9 12 16 25 18 16 13 15 12 15 15 15 12 12 15 12 15 20 22 20 20 38 50 56 36 33 28 28 19 24 29 26 17 17
28 25 18 10 13 14 16 17 13 9 6 12 15 20 16 19 36 17 14 15 16 18 16 12 15 16 16 18 22 19 18 18 28 38 31 20 15 13 20 12 8 8 6 8 14
27 22 12 16 17 18 19 17 13 8 6 19 15 14 20 41 27 14 15 22 20 21 20 19 18 20 23 21 17 15 21 24 30 31 23 15 17 19 21 19 17 17 13 4 8
24 13 16 18 19 20 19 16 14 7 11 15 12 19 39 38 28 15 26 33 27 28 32 24 23 21 20 16 13 14 13 12 13 17 13 20 15 17 19 22 18 22 19 29 31
16 14 19 19 20 20 18 16 12 7 16 11 18 24 38 35 31 22 33 33 34 31 26 22 23 24 20 13 12 13 12 13 14 13 13 14 16 17 21 19 19 21 27 34 44
14 18 19 19 21 20 18 15 8 14 10 16 21 37 47 39 36 25 31 33 33 30 24 24 24 23 17 14 12 12 12 14 16 15 14 14 17 16 18 18 20 23 27 41 55
19 19 20 21 21 20 16 11 13 10 17 23 23 45 46 34 31 25 29 28 32 31 25 23 26 18 15 15 17 20 17 12 14 14 12 16 14 18 18 19 23 26 29 36 53
19 21 21 20 21 18 13 12 12 20 25 21 30 38 35 35 22 23 26 24 29 28 20 22 25 20 19 19 17 20 22 23 24 25 23 20 25 23 19 22 24 26 27 30 40
20 21 20 20 18 14 12 19 26 27 24 18 33 30 26 28 20 13 17 17 21 20 18 20 21 18 19 17 16 17 20 20 21 25 26 27 24 25 22 24 24 26 27 29 32
22 19 19 16 14 13 22 29 29 25 18 23 28 35 28 28 28 12 13 14 14 14 10 19 20 20 22 22 23 23 20 23 20 25 26 25 24 23 23 25 25 26 29 29 29
21 18 16 15 17 29 32 32 24 20 15 26 31 28 26 28 24 12 9 9 10 10 22 26 28 25 23 21 18 20 21 23 24 23 25 24 25 24 25 27 29 29 29 29 30
20 17 15 23 33 36 38 28 22 19 35 38 33 24 29 30 24 15 15 15 13 27 32 28 28 26 23 22 18 23 24 25 25 27 28 28 30 31 31 32 32 33 34 36 48
19 17 24 36 40 44 36 24 32 41 36 36 35 27 32 32 30 20 20 25 31 30 29 29 25 24 23 24 30 29 26 27 30 30 26 35 40 41 38 39 38 36 42 50 59
20 22 36 42 56 54 47 40 44 41 49 30 30 27 36 31 26 26 33 31 26 28 28 28 26 24 26 26 29 30 34 30 31 32 35 43 36 50 50 46 40 44 50 50 50
23 34 46 44 52 63 57 44 49 48 33 29 32 33 36 35 24 27 30 27 27 27 30 25 28 31 34 36 34 34 32 36 41 44 48 48 54 49 47 47 48 51 50 51 53
32 44 52 46 54 63 58 48 46 50 31 34 29 23 34 35 31 20 30 30 29 31 32 36 33 28 26 41 40 37 36 47 53 63 65 52 54 51 54 56 54 51 54 61 68
36 51 51 44 59 56 48 44 40 49 32 31 27 29 34 33 28 24 31 30 33 30 35 32 43 33 43 42 43 38 41 42 57 73 49 54 63 56 53 54 60 70 71 73 72
39 50 51 42 53 51 41 38 57 38 33 30 36 39 38 41 40 31 33 38 40 41 37 41 45 34 22 34 42 45 49 36 44 59 56 61 65 64 63 66 66 70 74 80 70
39 48 47 39 41 46 38 39 50 36 32 38 38 38 40 40 42 43 43 41 38 41 42 42 45 33 38 39 36 33 40 46 41 60 57 56 63 63 69 69 69 73 72 77 80
40 44 42 38 34 38 36 48 48 34 33 37 40 39 36 38 42 46 46 46 40 40 43 44 36 37 44 33 35 39 34 34 43 52 68 81 53 54 52 62 67 71 74 76 75
40 42 40 38 32 33 34 57 55 41 34 33 37 36 37 36 38 46 44 45 39 37 41 46 35 41 38 27 25 24 34 30 23 42 57 62 48 51 56 64 62 60 72 76 74
44 39 36 36 29 30 32 58 56 50 38 35 36 38 36 37 41 44 45 48 43 29 31 43 38 42 42 38 38 38 36 33 38 37 38 49 40 55 58 63 63 66 66 69 75
42 39 36 35 28 26 27 52 55 47 39 39 39 38 40 42 45 46 48 48 43 28 25 35 31 32 26 32 37 37 41 37 37 37 39 41 40 48 52 55 63 66 70 74 78
43 45 32 29 27 25 29 54 57 47 34 36 47 47 42 45 47 47 48 50 39 28 22 26 24 34 31 33 30 28 36 37 30 33 38 29 32 38 46 53 69 71 72 77 88
42 70 30 27 21 22 35 62 59 50 42 32 29 45 48 46 45 46 49 43 34 24 18 22 24 28 30 30 32 34 20 21 26 31 36 44 52 49 54 62 67 71 79 84 86
46 62 61 43 22 23 30 58 47 36 41 48 47 46 42 51 54 49 48 42 31 27 19 16 20 24 34 28 28 24 12 23 29 34 42 48 43 51 52 60 72 80 84 86 85

GFSSW_700_rhum_042.txt.gz
RH
38 29 24 25 25 23 15 9 11 11 8 7 8 20 25 26 26 28 18 15 12 10 8 7 10 15 6 9 13 16 20 22 41 62 60 65 64 49 59 50 38 39 36 22 27
29 24 26 26 23 18 10 11 11 10 9 7 8 13 16 21 25 16 22 14 11 12 12 9 15 17 8 11 11 16 20 32 42 55 58 60 48 62 53 34 33 38 31 16 22
25 25 27 26 22 12 14 15 14 14 11 7 8 11 16 20 20 37 16 15 16 16 16 16 14 17 10 16 19 22 20 23 51 44 40 47 52 53 28 17 13 11 14 10 20
26 27 28 25 13 15 18 17 17 17 12 7 11 15 17 20 31 18 16 21 20 20 17 15 14 14 16 18 21 20 24 30 31 38 38 35 45 26 23 19 20 18 6 6 11
26 28 27 16 15 18 18 19 18 16 11 7 18 14 20 35 32 21 34 31 24 21 21 25 16 20 22 21 18 19 19 24 33 38 34 29 29 22 24 21 20 20 24 22 29
27 28 20 14 19 18 20 19 17 14 7 14 13 16 35 36 30 31 34 34 33 30 27 24 25 24 23 21 15 16 14 19 24 20 23 22 19 21 21 19 22 27 29 38 51
28 25 15 19 19 19 20 19 16 10 8 14 12 24 39 38 35 31 33 34 34 30 27 25 25 24 18 14 13 14 14 15 15 13 16 18 16 16 19 20 22 27 41 53 48
27 16 19 20 20 21 20 19 12 8 13 12 21 37 40 42 34 31 32 32 33 29 24 28 23 19 18 13 13 14 14 16 14 14 15 15 16 16 18 19 24 25 30 44 50
20 16 21 21 20 21 20 14 11 12 12 21 26 47 46 42 28 29 29 29 31 25 23 26 24 16 17 14 19 22 16 15 16 16 14 16 22 22 20 19 23 25 26 31 41
16 19 22 20 21 20 15 12 12 14 24 24 37 34 35 34 28 24 27 26 24 28 17 23 22 18 17 19 19 19 21 22 23 24 26 22 23 27 24 21 24 25 26 28 34
18 21 21 21 21 17 13 12 20 25 25 22 34 34 31 26 27 17 19 18 15 22 11 21 20 19 20 19 19 22 24 22 21 22 26 27 25 23 24 22 24 25 27 33 32
19 22 20 20 18 15 15 22 29 26 23 24 31 34 30 27 27 13 14 16 10 16 12 23 24 24 24 24 19 19 20 25 25 23 26 25 25 25 24 23 25 26 27 30 32
20 22 19 18 16 24 32 30 27 24 18 28 25 32 28 30 23 12 12 14 12 19 27 27 27 24 23 23 22 21 24 26 26 28 25 26 28 26 23 25 28 30 34 38 41
21 21 18 17 27 38 35 28 26 26 35 36 34 26 29 32 30 18 15 16 14 30 31 28 27 27 27 25 23 26 28 29 29 28 28 31 34 34 32 31 33 35 40 54 68
21 20 16 28 49 49 40 26 39 44 44 32 37 28 29 35 28 25 20 29 30 33 29 28 23 23 25 24 23 27 31 32 31 30 30 35 36 32 33 37 36 44 63 69 66
21 18 26 39 58 75 39 39 50 44 56 33 31 30 37 36 30 32 33 30 29 29 28 26 27 27 26 31 33 30 30 29 33 43 49 52 55 44 36 39 47 58 61 57 58
22 24 36 45 74 73 48 55 52 46 30 32 29 35 38 37 27 31 31 29 29 31 31 30 30 30 30 38 38 36 37 46 55 61 66 53 50 48 45 45 52 52 53 55 60
27 32 42 48 71 69 58 51 46 47 29 32 22 30 39 37 28 23 32 28 29 28 32 34 38 30 33 35 40 40 41 43 58 78 56 51 59 53 49 50 56 57 58 57 66
37 39 51 52 65 63 54 47 44 50 34 30 31 31 38 37 26 31 34 32 33 30 29 38 43 35 33 44 42 41 48 36 40 58 58 54 57 52 55 50 55 59 60 71 72
39 47 55 51 57 61 51 45 43 46 35 29 33 37 39 43 33 31 32 37 39 39 35 40 44 34 32 29 42 41 45 46 43 55 48 55 56 50 48 50 65 70 70 66 61
42 52 56 52 51 55 46 41 55 50 34 33 38 41 36 42 40 43 42 43 36 40 45 44 41 39 38 37 40 40 38 33 38 48 68 79 45 45 55 53 61 70 72 74 75
45 52 53 51 49 48 43 39 58 51 36 38 38 36 38 38 39 43 44 43 43 38 44 45 41 39 40 36 26 27 36 31 20 39 55 61 39 41 49 58 70 72 73 66 68
48 49 47 47 41 40 39 42 56 51 41 38 39 37 37 39 43 46 45 45 46 32 42 46 40 41 39 36 32 31 27 27 25 29 33 52 26 31 36 48 62 58 62 70 75
52 50 46 44 37 34 35 44 56 56 42 36 36 37 39 40 38 41 45 47 49 37 32 41 39 34 31 25 27 33 30 26 28 37 34 27 22 29 38 46 52 60 70 70 74
62 50 42 40 36 30 30 40 58 52 42 38 37 40 40 41 44 46 48 49 50 42 32 27 36 34 32 27 27 27 29 24 25 29 34 19 25 25 32 40 50 56 64 73 77
62 54 40 33 30 29 27 31 54 53 40 31 39 51 47 46 45 47 48 51 48 37 27 26 27 25 35 33 32 31 28 28 27 26 25 24 21 25 39 46 46 53 64 77 85
56 53 38 31 29 29 25 28 34 52 42 36 34 34 48 48 46 44 50 45 39 32 24 20 22 24 30 27 32 34 16 15 14 10 20 27 24 36 38 45 50 60 72 80 89

GFSSW_700_rhum_045.txt.gz
RH
25 28 29 23 22 24 26 23 14 9 9 11 8 6 18 25 27 26 26 21 16 14 13 10 9 11 13 6 13 21 23 24 56 63 74 75 70 56 57 60 64 48 43 32 34
23 26 24 22 22 26 25 18 11 13 12 12 9 6 16 17 20 23 19 16 15 14 10 7 8 13 6 8 17 21 29 24 34 55 65 61 59 52 53 62 58 52 36 16 38
20 22 22 22 23 27 22 12 14 16 14 14 10 6 10 13 21 26 21 17 14 16 16 15 12 16 8 14 16 16 20 22 46 48 45 55 58 45 57 41 32 31 31 16 36
19 21 22 23 25 25 13 13 17 18 17 16 8 8 12 19 29 22 17 19 16 16 17 17 15 18 10 13 19 21 28 30 44 46 40 42 51 57 37 24 19 13 15 18 25
19 20 22 23 26 17 13 17 19 19 17 13 7 14 16 20 27 22 34 30 24 20 17 16 16 14 17 21 23 27 29 41 42 47 43 40 44 30 28 25 22 12 16 14 19
18 22 24 26 23 14 16 18 20 18 15 9 10 16 16 33 22 34 34 34 31 27 27 22 20 26 27 24 19 23 28 24 30 44 38 29 31 27 28 26 32 37 38 37 24
18 22 25 26 15 16 17 20 20 16 13 7 17 13 19 37 21 34 33 35 33 31 27 28 30 30 23 24 21 18 15 27 27 42 34 26 26 24 26 27 30 28 30 39 46
20 23 26 18 15 17 19 21 19 15 8 13 12 16 36 40 24 34 32 34 33 28 26 27 26 26 20 15 16 19 16 16 17 21 24 22 21 19 23 24 25 26 34 44 47
22 25 23 16 17 19 20 21 17 11 11 12 14 30 37 42 25 33 31 32 30 26 22 28 26 22 19 14 16 15 16 15 16 17 17 19 18 19 22 23 25 25 28 36 47
23 25 17 18 18 20 21 18 13 12 13 14 24 38 44 44 28 32 29 28 27 28 19 27 24 17 19 14 20 22 18 15 16 17 24 17 21 26 25 21 24 25 27 29 33
26 22 19 20 19 21 20 14 13 16 15 20 32 37 36 35 33 22 30 28 20 20 16 25 23 17 16 19 20 19 20 22 24 24 26 27 27 27 25 24 22 24 27 29 34
26 20 20 20 19 21 16 14 18 23 22 23 36 35 36 31 31 21 24 22 15 18 12 21 21 19 22 22 21 21 21 24 24 22 24 25 25 23 23 25 22 26 29 35 44
23 22 22 19 20 17 17 25 26 28 25 23 32 32 32 29 26 22 17 16 14 20 20 16 22 24 24 22 20 20 23 25 25 26 26 25 24 24 24 25 24 26 29 37 38
24 22 23 19 19 19 31 34 29 26 24 25 32 32 28 34 27 23 19 18 18 33 30 28 27 26 27 25 23 25 28 27 28 28 28 28 28 26 26 25 24 26 31 41 54
26 24 24 18 22 29 41 30 36 32 46 27 31 30 29 34 29 28 18 20 24 33 29 27 26 27 27 24 21 26 33 33 31 31 30 32 34 30 31 31 32 35 45 61 70
25 24 22 18 41 52 44 35 53 48 51 34 35 32 29 35 35 31 29 30 30 32 30 27 27 27 26 25 28 27 32 34 33 34 43 35 40 43 33 29 35 42 58 67 65
26 25 23 39 73 71 42 55 50 45 36 35 37 31 32 38 33 35 33 31 31 32 30 34 32 28 27 31 33 35 31 41 43 52 45 52 54 42 42 43 45 54 58 60 60
28 24 29 70 85 67 49 60 51 37 37 34 33 30 38 38 30 34 33 31 30 29 30 32 34 29 28 33 34 38 37 38 54 59 53 56 58 47 45 44 49 62 64 61 62
28 25 38 72 81 69 56 53 43 47 40 36 31 37 41 40 27 27 33 31 30 28 27 32 36 34 30 38 40 43 46 40 39 54 54 43 45 34 39 43 48 55 58 61 64
26 32 44 58 77 68 60 51 42 50 36 35 29 32 39 40 33 28 35 34 31 30 27 31 38 39 33 36 44 40 43 43 42 57 42 44 46 30 28 38 47 53 62 66 70
36 41 54 58 72 67 58 53 39 49 39 35 33 35 37 42 38 30 33 33 34 34 38 38 40 41 37 32 32 38 45 35 34 38 43 48 31 21 25 45 43 52 66 69 65
48 48 58 62 67 67 60 48 39 53 41 34 32 40 37 40 38 32 35 32 38 35 41 45 44 40 39 35 35 39 36 32 27 37 48 53 28 21 22 33 52 69 72 73 72
48 56 70 74 69 57 59 46 42 54 41 33 38 40 40 35 41 40 42 42 42 41 40 45 44 40 42 40 35 27 22 24 26 22 28 49 18 20 22 27 38 57 71 72 67
53 66 77 78 63 50 54 45 42 56 49 39 38 40 38 39 40 38 40 43 45 48 34 45 45 39 36 29 28 30 25 28 30 25 23 20 15 18 24 27 39 49 56 55 65
63 64 58 72 62 44 46 43 53 56 49 44 40 38 38 39 43 41 42 45 48 50 39 36 43 42 38 34 25 24 25 30 30 25 20 11 13 16 22 25 34 46 54 57 68
75 62 53 49 49 41 40 38 51 53 47 45 38 37 40 40 39 41 47 49 49 48 44 34 30 28 34 34 31 29 29 26 25 23 21 19 11 15 22 31 39 48 52 56 67
69 61 49 46 43 40 34 34 40 58 45 36 30 41 49 51 50 49 46 44 51 49 38 33 30 28 30 28 37 38 18 18 16 15 15 21 12 21 28 30 32 42 48 65 79

GFSSW_700_rhum_048.txt.gz
RH
14 13 18 23 19 20 20 23 23 19 11 9 9 10 6 12 24 25 26 25 23 20 15 14 12 11 14 9 6 17 26 40 49 49 80 81 80 59 53 54 59 61 61 57 65
12 12 18 21 17 19 20 24 23 12 11 12 10 9 6 13 20 22 24 23 18 16 14 9 8 9 17 16 16 24 27 29 40 61 62 73 70 49 60 42 61 66 57 45 60
11 11 15 18 17 19 22 25 17 12 14 14 13 11 6 11 14 23 23 21 18 13 12 10 8 13 23 20 23 26 27 30 41 63 56 55 61 57 61 56 71 77 44 24 65
13 13 13 16 17 20 24 22 13 14 16 17 16 10 7 12 28 28 22 17 16 16 16 16 13 14 20 16 20 24 22 30 50 54 39 53 47 55 65 51 30 34 28 34 46
15 13 13 15 17 21 24 14 15 15 17 17 14 7 12 19 26 24 34 29 23 21 19 18 16 25 21 21 18 23 34 40 45 40 45 45 51 58 52 26 11 14 23 33 34
16 13 13 17 18 22 19 14 16 16 18 15 9 9 16 20 28 31 34 33 30 23 20 20 19 20 23 27 24 30 37 37 36 46 48 50 47 47 30 24 13 17 26 30 29
15 14 16 17 21 22 14 15 17 18 16 13 7 16 18 28 26 34 33 35 35 33 33 33 31 32 28 23 19 24 25 27 35 36 50 40 38 36 29 35 33 33 25 25 25
16 17 17 17 24 17 14 18 18 18 15 8 12 15 18 34 24 33 32 34 34 30 29 29 30 31 26 25 24 20 23 27 25 38 40 29 23 23 29 36 39 43 41 41 45
18 18 18 21 22 14 16 19 19 17 13 8 15 14 30 37 24 33 30 29 28 26 28 28 29 26 27 21 20 19 20 20 29 38 30 24 21 20 24 28 37 41 44 44 46
20 20 18 24 18 15 19 20 19 16 9 13 14 25 35 38 24 33 30 27 24 24 23 28 26 27 23 19 17 19 17 19 18 19 24 24 21 19 22 26 27 31 38 45 52
20 21 20 23 17 17 21 20 16 11 12 15 20 35 39 41 26 32 31 28 26 26 24 29 27 23 21 19 19 23 20 18 21 17 26 25 18 22 24 23 25 30 31 34 40
22 21 24 20 18 19 22 18 14 18 16 19 28 37 37 34 34 25 31 29 26 25 16 26 26 18 17 18 20 23 24 25 23 19 27 29 29 27 26 26 24 26 30 31 36
23 23 26 19 20 19 21 17 19 26 27 21 33 37 36 30 30 30 23 26 22 28 13 25 24 20 20 22 23 30 27 28 26 23 25 29 29 23 23 22 25 24 26 30 35
24 26 24 21 20 22 18 21 30 31 47 26 33 34 33 29 29 26 20 24 17 27 22 26 21 24 24 23 26 28 23 24 26 27 23 26 19 32 23 22 23 25 27 31 35
25 27 23 22 18 20 28 36 35 34 34 28 33 35 31 34 29 24 19 20 27 32 27 29 26 28 33 26 21 27 25 30 31 30 30 31 25 32 29 28 25 25 26 30 40
27 28 24 23 20 43 44 40 59 66 37 32 33 33 31 31 34 28 22 19 20 32 31 26 28 28 27 26 24 25 32 34 35 36 29 28 34 17 38 48 35 35 41 48 54
29 28 26 24 29 46 53 58 66 48 33 37 36 33 32 34 36 34 34 28 29 36 38 36 34 30 29 33 32 34 35 27 32 31 26 51 40 22 36 38 42 43 49 57 62
31 29 27 24 52 71 65 68 56 34 38 34 37 33 32 36 36 33 35 35 32 31 35 30 36 34 32 41 37 40 34 27 26 29 28 50 37 42 41 41 42 48 66 66 62
34 32 27 33 80 80 62 78 45 44 42 34 37 35 38 39 35 36 40 38 36 30 27 34 37 31 27 27 32 41 38 42 48 46 47 31 43 40 31 34 39 47 59 64 65
40 34 27 66 89 72 69 62 49 52 44 34 32 33 35 40 36 30 39 35 31 29 28 28 41 35 31 29 37 41 42 42 41 46 29 20 28 23 28 38 38 48 53 65 69
50 40 29 78 87 75 84 63 47 56 40 37 32 39 38 46 39 33 38 35 32 30 28 27 30 45 38 37 39 46 46 41 41 37 24 21 15 22 26 23 30 46 58 66 65
57 51 36 65 87 88 83 65 48 44 49 36 35 36 37 43 44 38 36 34 32 32 36 32 40 48 43 38 31 33 43 44 32 36 52 46 20 14 13 12 21 29 43 55 58
57 79 44 65 96 81 73 58 50 47 48 36 34 35 34 40 44 37 29 28 35 37 36 37 46 48 47 46 37 41 40 41 31 22 40 56 18 12 13 15 19 32 38 53 66
74 56 52 75 89 82 71 60 48 47 51 37 35 42 38 34 34 40 40 39 41 43 41 42 46 44 38 33 36 43 34 26 31 37 26 28 17 20 15 19 21 27 36 51 68
80 82 56 75 74 74 68 54 50 48 54 41 34 37 40 38 40 40 40 39 42 44 47 39 47 45 43 39 36 30 32 29 32 29 36 20 23 19 29 17 23 26 33 43 56
78 77 73 73 70 64 60 56 50 54 54 46 41 39 39 37 37 37 40 42 44 47 50 47 44 37 41 41 38 34 29 26 23 34 32 30 21 28 20 18 22 27 32 41 50
79 77 63 58 70 62 50 52 46 55 53 51 42 40 39 38 39 38 45 49 48 47 49 49 40 33 39 27 34 39 20 21 20 17 17 34 25 33 25 21 29 28 29 39 45